Location: Aranbee
(34.0885°N, 118.2342°W)
Time: 22:27:03
(UTC+00:00)

Tiros 1 - Pass Details

Date: 04 December 2020
Orbit: 630 x 663 km, 48.4° (Epoch: 19 January)

Event Time Altitude Azimuth Distance (km) Brightness Sun altitude
Rises 22:02:24 0° 272° (W) 2,987 11.0 24.6°
Reaches altitude 10° 22:05:11 10° 287° (WNW) 2,078 10.1 24.2°
Maximum altitude 22:08:58 22° 339° (NNW) 1,421 8.8 23.8°
Drops below altitude 10° 22:12:45 10° 31° (NNE) 2,079 9.3 23.3°
Sets 22:15:33 0° 47° (NE) 2,990 10.0 22.9°
